{"data":{"norad_id":68306,"intl_designator":"2026-057N","name":"STARLINK-36307","alt_names":[],"object_type":"PAYLOAD","status":"ACTIVE","operator":null,"country":"US","launch_date":"2026-03-20","launch_site_code":"AFWTR","launch_vehicle":null,"mission":null,"orbit_class":"UNKNOWN","rcs_meters":null,"size_class":null,"mass_kg":null,"dimensions":null,"purposes":["comms"],"wikipedia_slug":null,"has_3d_model":false,"image_url":null,"decayed_at":null,"tle_current":{"epoch":"2026-09-19T15:47:25.696320Z","epoch_age_seconds":121152,"freshness":"FRESH","line1":"1 68306U 26057N   26262.65793630  .00014755  00000+0  45845-3 0  9990","line2":"2 68306  97.2836  28.0561 0001211 125.9801 234.1554 15.33446904 28387","mean_motion":15.33446904,"eccentricity":0.0001211,"inclination_deg":97.2836,"raan_deg":28.0561,"arg_perigee_deg":125.9801,"mean_anomaly_deg":234.1554,"bstar":0.00045845,"rev_number":2838,"period_min":93.906088058462,"perigee_km":464.70874053647,"apogee_km":466.36627850267,"semimajor_km":6843.6745095196,"source":"CELESTRAK","updated_at":"2026-09-20T09:00:43.856307Z"}}}